Lubbock, TX

12:22 PM CDT on May 25, 2017 (GMT -0500)
Lubbock International

Weather History for KLBB - February, 2014

Change the Weather History Date:

Sunday, February 2, 2014

  Actual Average Record
Temperature  
Mean Temperature 27 °F 42 °F  
Max Temperature 32 °F 56 °F 80 °F (2003)
Min Temperature 22 °F 28 °F -4 °F (1951)
Degree Days  
Heating Degree Days 38 23  
Month to date heating degree days 65 46  
Since 1 July heating degree days 2293 2211  
Cooling Degree Days 0 0  
Month to date cooling degree days 0 0  
Year to date cooling degree days 0 0  
Moisture  
Dew Point 22 °F    
Average Humidity 82    
Maximum Humidity 92    
Minimum Humidity 72    
Precipitation  
Precipitation 0.12 in 0.02 in 0.61 in (1975)
Month to date precipitation 0.12 0.05  
Year to date precipitation 0.12 0.70  
Snow  
Snow 1.20 in 0.10 in 2.00 in (1956)
Month to date snowfall 1.2 0.2  
Since 1 July snowfall 3.6 6.0  
Snow Depth 1.00 in    
Sea Level Pressure  
Sea Level Pressure 30.15 in    
Wind  
Wind Speed 10 mph (NNE)    
Max Wind Speed 24 mph    
Max Gust Speed 31 mph    
Visibility 6 miles    
Events Rain , Snow    
T = Trace of Precipitation, MM = Missing Value Source: NWS Daily Summary

Daily Weather History Graph

Daily Weather History Graph

Search for Another Location

Airport or City:

Trip Planner

Search our weather history database for the weather conditions in past years. The results will help you decide how hot, cold, wet, or windy it might be!

Date:

Astronomy

Feb. 02, 2014 Rise Set
Actual Time 7:42 AM CST 6:19 PM CST
Civil Twilight 7:16 AM CST 6:45 PM CST
Nautical Twilight 6:47 AM CST 7:15 PM CST
Astronomical Twilight 6:17 AM CST 7:44 PM CST
Moon 9:22 AM CST (2/2) 9:52 PM CST (2/2)
Length of Visible Light 11h 28m
Length of Day
10h 36m
Waxing Crescent, 11% of the Moon is Illuminated
Feb 2
Waxing Crescent
Feb 6
First Quarter
Feb 14
Full
Feb 22
Last Quarter
Mar 1
New

Hourly Weather History & Observations

Time (CST) Temp. Windchill Dew Point Humidity Pressure Visibility Wind Dir Wind Speed Gust Speed Precip Events Conditions
12:15 AM 30.0 °F 18.3 °F 24.1 °F 79% 30.07 in 10.0 mi NE 17.3 mph 27.6 mph N/A   Overcast
12:25 AM 30.0 °F 18.3 °F 24.1 °F 79% 30.06 in 10.0 mi NNE 17.3 mph - 0.00 in   Light Ice Pellets
12:46 AM 30.0 °F 17.9 °F 24.1 °F 79% 30.05 in 4.0 mi NNE 18.4 mph 25.3 mph 0.00 in Snow Light Snow
12:53 AM 28.9 °F 15.8 °F 25.0 °F 85% 30.05 in 4.0 mi NNE 20.7 mph 28.8 mph 0.00 in Snow Light Snow
1:24 AM 28.9 °F 15.1 °F 26.1 °F 89% 30.04 in 6.0 mi NNE 23.0 mph 31.1 mph 0.01 in Rain Light Freezing Rain
1:41 AM 28.0 °F 15.7 °F 26.1 °F 92% 30.03 in 6.0 mi NNE 17.3 mph 28.8 mph 0.01 in Rain Light Freezing Rain
1:53 AM 28.0 °F 16.5 °F 25.0 °F 88% 30.06 in 6.0 mi NNE 15.0 mph 24.2 mph 0.02 in Rain Light Freezing Rain
2:00 AM 28.0 °F 15.3 °F 25.0 °F 88% 30.05 in 6.0 mi NE 18.4 mph - 0.00 in Snow Light Snow
2:19 AM 27.0 °F 15.2 °F 25.0 °F 92% 30.06 in 2.0 mi NNE 15.0 mph - 0.01 in Snow Light Snow
2:53 AM 27.0 °F 13.5 °F 24.1 °F 89% 30.07 in 4.0 mi NE 19.6 mph - 0.01 in Snow Light Snow
3:25 AM 26.1 °F 14.0 °F 24.1 °F 92% 30.07 in 4.0 mi NE 15.0 mph - 0.01 in Snow Light Snow
3:37 AM 26.1 °F 14.0 °F 24.1 °F 92% 30.07 in 5.0 mi NNE 15.0 mph - 0.01 in Snow Light Snow
3:53 AM 26.1 °F 14.5 °F 24.1 °F 92% 30.08 in 6.0 mi NNE 13.8 mph 20.7 mph 0.01 in   Overcast
4:10 AM 26.1 °F 13.1 °F 21.9 °F 84% 30.07 in 8.0 mi NE 17.3 mph - 0.00 in Snow Light Snow
4:53 AM 26.1 °F 14.5 °F 23.0 °F 88% 30.09 in 2.5 mi NNE 13.8 mph - 0.01 in Snow Light Snow
5:06 AM 25.0 °F 11.7 °F 21.9 °F 88% 30.07 in 4.0 mi NNE 17.3 mph - 0.00 in Snow Light Snow
5:33 AM 24.1 °F 9.8 °F 21.0 °F 88% 30.09 in 3.0 mi NNE 19.6 mph - 0.01 in Snow Light Snow
5:53 AM 24.1 °F 12.5 °F 21.0 °F 88% 30.12 in 4.0 mi NNE 12.7 mph - 0.01 in Snow Light Snow
6:09 AM 24.1 °F 11.0 °F 21.0 °F 88% 30.10 in 2.0 mi NNE 16.1 mph - 0.01 in Snow Light Snow
6:18 AM 24.1 °F 11.5 °F 21.0 °F 88% 30.10 in 1.5 mi NNE 15.0 mph - 0.01 in Snow Light Snow
6:53 AM 24.1 °F 16.0 °F 21.9 °F 91% 30.15 in 1.8 mi NNE 6.9 mph - 0.03 in Snow Light Snow
7:00 AM 24.1 °F 14.4 °F 21.9 °F 91% 30.13 in 1.8 mi NNE 9.2 mph - 0.00 in Snow Light Snow
7:05 AM 24.1 °F 13.1 °F 21.0 °F 88% 30.13 in 1.8 mi NNE 11.5 mph - 0.00 in Snow Light Snow
7:36 AM 23.0 °F 11.1 °F 19.9 °F 88% 30.15 in 1.8 mi NNE 12.7 mph - 0.00 in Snow Light Snow
7:53 AM 21.9 °F 7.8 °F 19.0 °F 89% 30.19 in 1.2 mi NNE 17.3 mph - 0.01 in Snow Light Snow
8:03 AM 21.9 °F 8.2 °F 18.0 °F 85% 30.16 in 1.5 mi North 16.1 mph - 0.00 in Snow Light Snow
8:53 AM 21.9 °F 11.0 °F 19.0 °F 89% 30.24 in 1.0 mi North 10.4 mph - 0.01 in Snow Light Snow
9:05 AM 21.9 °F 12.5 °F 19.0 °F 89% 30.20 in 3.0 mi North 8.1 mph - 0.01 in Snow Light Snow
9:12 AM 23.0 °F 13.1 °F 19.0 °F 85% 30.21 in 2.5 mi North 9.2 mph - 0.01 in Snow Light Snow
9:29 AM 23.0 °F 11.7 °F 19.0 °F 85% 30.21 in 3.0 mi North 11.5 mph - 0.01 in Snow Light Snow
9:53 AM 21.9 °F 9.8 °F 18.0 °F 85% 30.26 in 3.0 mi North 12.7 mph - 0.01 in   Overcast
10:53 AM 24.1 °F 12.5 °F 18.0 °F 77% 30.27 in 9.0 mi North 12.7 mph - 0.00 in Snow Light Snow
11:53 AM 25.0 °F 14.8 °F 18.0 °F 75% 30.26 in 10.0 mi NNE 10.4 mph - 0.00 in   Overcast
12:53 PM 27.0 °F 18.0 °F 19.9 °F 75% 30.25 in 10.0 mi North 9.2 mph - N/A   Overcast
1:53 PM 27.0 °F 19.5 °F 21.0 °F 78% 30.22 in 10.0 mi North 6.9 mph - N/A   Overcast
2:53 PM 28.9 °F 21.1 °F 21.0 °F 72% 30.20 in 10.0 mi NNE 8.1 mph - N/A   Overcast
3:53 PM 30.0 °F 25.2 °F 23.0 °F 75% 30.19 in 10.0 mi Variable 4.6 mph - N/A   Mostly Cloudy
4:53 PM 30.9 °F 26.2 °F 23.0 °F 72% 30.19 in 10.0 mi NW 4.6 mph - N/A   Mostly Cloudy
5:53 PM 30.0 °F - 23.0 °F 75% 30.19 in 10.0 mi Calm Calm - N/A   Mostly Cloudy
6:53 PM 28.0 °F 21.7 °F 23.0 °F 81% 30.19 in 10.0 mi East 5.8 mph - N/A   Partly Cloudy
7:53 PM 27.0 °F 21.6 °F 23.0 °F 85% 30.21 in 10.0 mi SSE 4.6 mph - N/A   Clear
8:53 PM 26.1 °F 20.5 °F 21.9 °F 84% 30.23 in 10.0 mi South 4.6 mph - N/A   Clear
9:53 PM 26.1 °F 21.9 °F 21.9 °F 84% 30.23 in 10.0 mi SSE 3.5 mph - N/A   Clear
10:53 PM 24.1 °F 17.0 °F 21.9 °F 91% 30.23 in 10.0 mi SSE 5.8 mph - N/A   Clear
11:53 PM 21.9 °F 14.5 °F 19.0 °F 89% 30.22 in 9.0 mi SE 5.8 mph - N/A   Partly Cloudy